Regional Weather Roundup
Issued by NWS

Home | Current Version | Previous Version | Text Only | Print | Product List | Glossary On
Versions: 1 2 3 4 5 6 7 8 9 10 11 12 13 14 15 16 17 18 19 20 21 22 23 24 25 26 27 28 29 30 31 32 33 34 35 36 37 38 39 40 41 42 43 44 45 46 47 48 49 50
055
ASUS44 KJAN 221410
RWRMS

MISSISSIPPI HOURLY WEATHER ROUNDUP
NATIONAL WEATHER SERVICE JACKSON MS
800 AM CST SAT NOV 22 2014

NOTE: "FAIR: INDICATES FEW OR NO CLOUDS BELOW 12,000 FEET WITH NO
SIGNIFICANT WEATHER AND/OR OBSTRUCTIONS TO VISIBILITY.

MSZ001>002-007>008-010>013-018>021-025>028-034>036-221500-
NORTHWEST MISSISSIPPI

CITY           SKY/WX    TMP DP  RH WIND       PRES   REMARKS
CLARKSDALE     PTSUNNY   54  46  76 SE9       30.26F
CLEVELAND      FAIR      54  48  82 SE8       30.25S
GREENWOOD      LGT RAIN  54  43  66 SE12      30.28R
GREENVILLE     CLOUDY    54  48  80 SE8       30.23F
GRENADA        CLOUDY    50  45  81 CALM      30.30R
OLIVE BRANCH   PTSUNNY   54  45  71 S12       30.27S
OXFORD         FAIR      50  41  71 SE10      30.29F
TUNICA         CLOUDY    54  46  76 SE8       30.27S
$$

MSZ003>006-009-014>017-022>024-029>033-037>039-221500-
NORTHEAST MISSISSIPPI

CITY           SKY/WX    TMP DP  RH WIND       PRES   REMARKS
COLUMBUS AFB   CLOUDY    50  43  77 SE3       30.33R
CORINTH        FAIR      52  39  62 SE9       30.31S
GOLDN TRIANGLE PTSUNNY   52  39  62 SE12      30.32R
STARKVILLE     PTSUNNY   52  41  66 SE8G18    30.31F
TUPELO         SUNNY     47  41  80 S5        30.33R
$$

MSZ040-058-221500-
CENTRAL MISSISSIPPI

CITY           SKY/WX    TMP DP  RH WIND       PRES   REMARKS
JACKSON INTL   PTSUNNY   54  42  64 SE9       30.28R
JACKSON HAWKNS MOSUNNY   54  42  64 SE8       30.27S
MERIDIAN KEY   SUNNY     52  40  63 E6        30.31S
MERIDIAN NAS     N/A    N/A N/A N/A MISG      30.33S
RAYMOND        FAIR      54  50  87 SE8       30.26F
VICKSBURG      PTSUNNY   56  46  69 SE5       30.25S
$$

MSZ059>079-221500-
SOUTH MISSISSIPPI

CITY           SKY/WX    TMP DP  RH WIND       PRES   REMARKS
BROOKHAVEN     FAIR      52  45  76 CALM      30.28S
HATTIESBURG    SUNNY     46  42  86 CALM      30.29R
MCCOMB         SUNNY     53  44  71 VRB6      30.25R
NATCHEZ        MOSUNNY   55  46  71 E9        30.23F
PINE BELT      SUNNY     52  39  62 E5        30.29R
$$

MSZ080>082-221500-
COASTAL MISSISSIPPI

CITY           SKY/WX    TMP DP  RH WIND       PRES   REMARKS
BAY ST LOUIS   SUNNY     57  46  67 E7        30.25R
BILOXI         SUNNY     58  47  67 E10       30.25R
PASCAGOULA     SUNNY     57  45  64 E7        30.27R
GULFPORT       SUNNY     57  47  69 E5        30.26R
$$



USA.gov is the U.S. government's official web portal to all federal, state and local government web resources and services.